Location: Falkner
(32.6954°N, 86.0502°W)
Time: 12:33:50
(UTC+00:00)

Cosmos 1812 Rocket - Pass Details

Date: 29 October 2020
Orbit: 605 x 632 km, 82.5° (Epoch: 04 December)

Event Time Altitude Azimuth Distance (km) Brightness Sun altitude
Rises 23:45:30 0° 166° (SSE) 2,892 7.0 -11.1°
Reaches altitude 10° 23:47:51 10° 158° (SSE) 1,986 6.0 -11.6°
Maximum altitude 23:51:52 36° 91° (E) 986 4.1 -12.4°
Drops below altitude 10° 23:55:53 10° 25° (NNE) 1,982 5.8 -13.2°
Sets 23:58:14 0° 17° (NNE) 2,886 6.7 -13.7°
